EZY93GU EGKK-LOWI

Flight info

Callsign EZY93GU
Flight time N/A
Altitude 35000
Route MIMFO Y312 DVR UL9 KONAN UL607 MATUG DCT AMASI DCT BOMBI/N0457F310 T104 WLD M867 BAVAX Z106 MANAL M736 TULSI TULSI3A
Aircraft A320/M-SDE3FGHIRWY/LB1

Departure

Time 2026-04-16 21:44
Airport London Gatwick Airport (EGKK)

Arrival

Time N/A
Airport Innsbruck Airport (LOWI)
Time Latitude Longitude Altitude Speed Heading
2026-04-16 21:20 51.15501 -0.16838 205 ft 0 kts 346°
2026-04-16 21:36 51.15485 -0.16832 216 ft 2 kts 346°
2026-04-16 21:36 51.15468 -0.16825 213 ft 2 kts 346°
2026-04-16 21:36 51.15452 -0.16818 214 ft 2 kts 346°
2026-04-16 21:37 51.15440 -0.16814 213 ft 0 kts 346°
2026-04-16 21:38 51.15449 -0.16796 213 ft 3 kts 56°
2026-04-16 21:38 51.15448 -0.16764 215 ft 3 kts 96°
2026-04-16 21:39 51.15441 -0.16740 210 ft 1 kts 130°
2026-04-16 21:39 51.15426 -0.16723 211 ft 7 kts 155°
2026-04-16 21:39 51.15370 -0.16699 208 ft 7 kts 164°
2026-04-16 21:39 51.15328 -0.16678 205 ft 5 kts 164°
2026-04-16 21:40 51.15296 -0.16666 212 ft 4 kts 168°
2026-04-16 21:40 51.15256 -0.16652 205 ft 12 kts 167°
2026-04-16 21:40 51.15220 -0.16639 210 ft 0 kts 167°
2026-04-16 21:42 51.15207 -0.16635 207 ft 11 kts 167°
2026-04-16 21:42 51.15139 -0.16661 207 ft 10 kts 244°
2026-04-16 21:42 51.15124 -0.16757 207 ft 7 kts 257°
2026-04-16 21:43 51.15113 -0.16837 210 ft 10 kts 258°
2026-04-16 21:43 51.15052 -0.17273 209 ft 77 kts 257°
2026-04-16 21:43 51.14892 -0.18430 205 ft 136 kts 258°
2026-04-16 21:43 51.14657 -0.20136 337 ft 170 kts 257°
2026-04-16 21:44 51.14426 -0.22000 861 ft 174 kts 257°
2026-04-16 21:44 51.14154 -0.24027 1195 ft 201 kts 256°
2026-04-16 21:44 51.13844 -0.26283 1890 ft 211 kts 256°
2026-04-16 21:44 51.13766 -0.28605 2841 ft 215 kts 279°
2026-04-16 21:45 51.14451 -0.30760 3704 ft 227 kts 309°
2026-04-16 21:45 51.15817 -0.32095 4540 ft 240 kts 342°
2026-04-16 21:45 51.17509 -0.32010 5312 ft 253 kts 19°
2026-04-16 21:45 51.18922 -0.30321 6040 ft 260 kts 58°
2026-04-16 21:46 51.19216 -0.29494 6270 ft 260 kts 70°
2026-04-16 21:46 51.19741 -0.26901 6974 ft 261 kts 79°
2026-04-16 21:46 51.20104 -0.24059 7751 ft 262 kts 83°
2026-04-16 21:46 51.20401 -0.21178 8532 ft 264 kts 84°
2026-04-16 21:47 51.20700 -0.18225 8980 ft 284 kts 83°
2026-04-16 21:47 51.21054 -0.15030 9477 ft 299 kts 82°
2026-04-16 21:47 51.21452 -0.11745 10238 ft 304 kts 82°
2026-04-16 21:47 51.21883 -0.08355 10631 ft 323 kts 81°
2026-04-16 21:48 51.22356 -0.04711 10848 ft 346 kts 80°
2026-04-16 21:48 51.22864 -0.00832 11032 ft 369 kts 80°
2026-04-16 21:48 51.23396 0.03246 11528 ft 378 kts 80°
2026-04-16 21:48 51.23938 0.07385 12161 ft 384 kts 80°
2026-04-16 21:49 51.24484 0.11579 12821 ft 389 kts 80°
2026-04-16 21:49 51.25035 0.15834 13478 ft 393 kts 80°
2026-04-16 21:49 51.25342 0.20135 14080 ft 396 kts 91°
2026-04-16 21:49 51.25166 0.24527 14378 ft 398 kts 100°
2026-04-16 21:50 51.24814 0.28924 14924 ft 402 kts 99°
2026-04-16 21:50 51.24469 0.33370 15474 ft 406 kts 99°
2026-04-16 21:50 51.24128 0.37873 16035 ft 410 kts 99°
2026-04-16 21:50 51.23786 0.42400 16612 ft 414 kts 99°
2026-04-16 21:51 51.23439 0.46985 17172 ft 418 kts 99°
2026-04-16 21:51 51.23088 0.51614 17722 ft 422 kts 99°
2026-04-16 21:51 51.22730 0.56287 18254 ft 426 kts 100°
2026-04-16 21:51 51.22362 0.61008 18776 ft 430 kts 100°
2026-04-16 21:52 51.21987 0.65759 19292 ft 434 kts 100°
2026-04-16 21:52 51.21614 0.70492 19797 ft 437 kts 99°
2026-04-16 21:52 51.21237 0.75308 20297 ft 441 kts 99°
2026-04-16 21:52 51.20851 0.80191 20791 ft 444 kts 99°
2026-04-16 21:53 51.20461 0.85095 21384 ft 447 kts 99°
2026-04-16 21:53 51.20061 0.90030 21819 ft 451 kts 100°
2026-04-16 21:53 51.19654 0.95007 22243 ft 454 kts 100°
2026-04-16 21:53 51.19244 1.00010 22668 ft 457 kts 100°
2026-04-16 21:54 51.18831 1.05046 23073 ft 460 kts 100°
2026-04-16 21:54 51.18415 1.10124 23468 ft 463 kts 99°
2026-04-16 21:54 51.17995 1.15234 23841 ft 466 kts 100°
2026-04-16 21:54 51.17569 1.20375 24167 ft 468 kts 100°
2026-04-16 21:55 51.17138 1.25533 24490 ft 471 kts 100°
2026-04-16 21:55 51.16699 1.30725 24810 ft 473 kts 100°
2026-04-16 21:55 51.16258 1.35936 25121 ft 475 kts 99°
2026-04-16 21:55 51.15883 1.41184 25430 ft 478 kts 97°
2026-04-16 21:56 51.15602 1.46479 25739 ft 481 kts 96°
2026-04-16 21:56 51.15385 1.51742 26033 ft 483 kts 95°
2026-04-16 21:56 51.15184 1.57085 26326 ft 485 kts 95°
2026-04-16 21:56 51.14973 1.62479 26607 ft 487 kts 95°
2026-04-16 21:57 51.14740 1.67869 26882 ft 489 kts 96°
2026-04-16 21:57 51.14482 1.73287 27154 ft 491 kts 96°
2026-04-16 21:57 51.14204 1.78718 27413 ft 493 kts 96°
2026-04-16 21:57 51.13918 1.84169 27662 ft 495 kts 96°
2026-04-16 21:58 51.13627 1.89640 27908 ft 497 kts 96°
2026-04-16 21:58 51.13332 1.95127 28140 ft 498 kts 96°
2026-04-16 21:58 51.13038 2.00636 28366 ft 500 kts 96°
2026-04-16 21:58 51.12745 2.06162 28624 ft 501 kts 96°
2026-04-16 21:59 51.12454 2.11692 28952 ft 500 kts 96°
2026-04-16 21:59 51.12162 2.17198 29273 ft 500 kts 96°
2026-04-16 21:59 51.11864 2.22723 29593 ft 500 kts 96°
2026-04-16 21:59 51.11567 2.28149 29914 ft 499 kts 96°
2026-04-16 22:00 51.11263 2.33647 30242 ft 499 kts 96°
2026-04-16 22:00 51.10956 2.39137 30535 ft 498 kts 96°
2026-04-16 22:00 51.10647 2.44626 30804 ft 498 kts 96°
2026-04-16 22:00 51.10336 2.50120 31080 ft 497 kts 96°
2026-04-16 22:01 51.10022 2.55610 31360 ft 497 kts 96°
2026-04-16 22:01 51.09710 2.61078 31647 ft 496 kts 97°
2026-04-16 22:01 51.09196 2.66487 31942 ft 493 kts 105°
2026-04-16 22:01 51.08292 2.71746 32214 ft 492 kts 108°
2026-04-16 22:02 51.07339 2.76976 32482 ft 492 kts 108°
2026-04-16 22:02 51.06394 2.82177 32762 ft 491 kts 108°
2026-04-16 22:02 51.05446 2.87390 33043 ft 491 kts 108°
2026-04-16 22:02 51.04497 2.92599 33318 ft 490 kts 108°
2026-04-16 22:03 51.03546 2.97803 33597 ft 490 kts 108°
2026-04-16 22:03 51.02595 3.02993 33871 ft 490 kts 108°
2026-04-16 22:03 51.01644 3.08177 34155 ft 489 kts 108°
2026-04-16 22:03 51.00700 3.13300 34397 ft 489 kts 108°
2026-04-16 22:04 50.99744 3.18474 34630 ft 488 kts 108°
2026-04-16 22:04 50.98784 3.23643 34868 ft 488 kts 108°
2026-04-16 22:04 50.97821 3.28809 35100 ft 487 kts 108°